All
Big Spring McMahon-Wrinkle Airport (Big Spring, TX) BPG Weather
|
Big Spring, TX (KBPG)
Clear skies
Light winds |
|
77 °F |
There is no TAF data available at BPG or any nearby airports.
Recent BPG METAR history
| Date | Time (CDT) | Flight Rules | Wind Dir. | Speed | Type | Height AGL (ft) | Visibility | Temp (°C) | Temp (°F) | Dew Point (°C) | Dew Point (°F) | Rel. Humid. | Pressure | Density Altitude | Remarks |
|---|---|---|---|---|---|---|---|---|---|---|---|---|---|---|---|
| 06-Sep | 04:15AM | VFR | 180° | 6 kt | 10 miles | 25° | 77° | 17° | 62° | 65% | 29.98 in Hg | 4,187 ft | |||
| 06-Sep | 03:55AM | VFR | 180° | 6 kt | 10 miles | 25° | 77° | 18° | 64° | 64% | 29.98 in Hg | 4,187 ft | |||
| 06-Sep | 03:35AM | VFR | 190° | 6 kt | 10 miles | 25° | 77° | 18° | 64° | 64% | 29.98 in Hg | 4,187 ft | |||
| 06-Sep | 03:15AM | VFR | 210° | 6 kt | 10 miles | 25° | 77° | 17° | 62° | 62% | 29.98 in Hg | 4,187 ft | |||
| 06-Sep | 02:55AM | VFR | 230° | 6 kt | 10 miles | 26° | 78° | 18° | 64° | 61% | 29.99 in Hg | 4,297 ft | |||
| 06-Sep | 02:35AM | VFR | 210° | 5 kt | 10 miles | 26° | 78° | 18° | 64° | 59% | 29.99 in Hg | 4,297 ft | |||
| 06-Sep | 02:15AM | VFR | 220° | 7 kt | 10 miles | 26° | 78° | 18° | 64° | 58% | 29.98 in Hg | 4,307 ft | |||
| 06-Sep | 01:55AM | VFR | 220° | 7 kt | 10 miles | 27° | 80° | 17° | 62° | 56% | 29.99 in Hg | 4,417 ft | |||
| 06-Sep | 01:35AM | VFR | 200° | 6 kt | 10 miles | 27° | 80° | 17° | 62° | 55% | 29.99 in Hg | 4,417 ft | |||
| 06-Sep | 01:15AM | VFR | 200° | 7 kt | 10 miles | 28° | 82° | 17° | 62° | 54% | 29.99 in Hg | 4,537 ft | |||
| 06-Sep | 12:55AM | VFR | 190° | 7 kt | 10 miles | 28° | 82° | 18° | 64° | 53% | 29.99 in Hg | 4,537 ft | |||
| 06-Sep | 12:35AM | VFR | 180° | 7 kt | 10 miles | 28° | 82° | 18° | 64° | 52% | 30.00 in Hg | 4,527 ft | |||
| 06-Sep | 12:15AM | VFR | 170° | 9 kt | 10 miles | 29° | 84° | 18° | 64° | 51% | 29.99 in Hg | 4,657 ft | |||
| 05-Sep | 11:55PM | VFR | 170° | 8 kt | 10 miles | 29° | 84° | 17° | 62° | 48% | 29.99 in Hg | 4,657 ft | |||
| 05-Sep | 11:15PM | VFR | 150° | 11 kt | 10 miles | 31° | 87° | 16° | 60° | 42% | 29.98 in Hg | 4,907 ft | |||
| 05-Sep | 10:55PM | VFR | 130° | 12 kt | 10 miles | 31° | 87° | 17° | 62° | 42% | 29.98 in Hg | 4,907 ft | |||
| 05-Sep | 10:35PM | VFR | 130° | 12 kt | 10 miles | 31° | 87° | 16° | 60° | 41% | 29.97 in Hg | 4,917 ft | Wind gusting to 16 KT | ||
| 05-Sep | 10:15PM | VFR | 130° | 10 kt | 10 miles | 31° | 87° | 16° | 60° | 40% | 29.97 in Hg | 4,917 ft | |||
| 05-Sep | 09:55PM | VFR | 120° | 9 kt | 10 miles | 32° | 89° | 16° | 60° | 38% | 29.95 in Hg | 5,057 ft | |||
| 05-Sep | 09:35PM | VFR | 110° | 7 kt | 10 miles | 31° | 87° | 14° | 57° | 36% | 29.95 in Hg | 4,937 ft | |||
| 05-Sep | 09:15PM | VFR | 100° | 6 kt | 10 miles | 32° | 89° | 14° | 57° | 34% | 29.94 in Hg | 5,067 ft | |||
| 05-Sep | 08:55PM | VFR | 100° | 8 kt | 10 miles | 32° | 89° | 14° | 57° | 32% | 29.93 in Hg | 5,077 ft | |||
| 05-Sep | 08:35PM | VFR | 100° | 7 kt | 10 miles | 33° | 91° | 13° | 55° | 31% | 29.92 in Hg | 5,207 ft | |||
| 05-Sep | 08:15PM | VFR | 90° | 6 kt | 10 miles | 34° | 93° | 14° | 57° | 30% | 29.92 in Hg | 5,327 ft |
Login
| Your browser is unsupported. upgrade your browser |
